カタログに戻る

STARLINK-5786

運用中通信VLEO
NORAD 56032·PAYLOAD·🇺🇸 United States

打ち上げ Mar 24, 2023 から Cape Canaveral Space Force Station

Loading…

次のパス (今後24時間)

TLE

最新Source: CelesTrak SupGP

元期: Sep 15, 2026, 02:50 UTC

1 56032C 23042AY  26258.11854167 -.00032689  00000+0 -11849-2 0  2585
2 56032  43.0023  55.5703 0002022 269.4559 120.5754 15.27567904    12

AllMySatでSTARLINK-5786をリアルタイム追跡

Download on the App Store